Location: Unspecified
(0.0000°N, 0.0000°E)
Time: 16:53:08
(UTC+00:00)

Tiangong 2 - Visible Passes

Search period start: 26 February 2017 00:00
Search period end: 08 March 2017 00:00
Orbit: 368 x 377 km, 42.8° (Epoch: 26 February)

Date Brightness Start Highest point End Pass type
(mag) Time Alt. Az. Time Alt. Az. Time Alt. Az.
01 Mar 1.8 19:26:31 10° NNW 19:28:44 39° N 19:28:44 39° N visible
02 Mar 4.0 20:00:12 10° W 20:01:37 16° WSW 20:01:37 16° WSW visible
03 Mar 1.5 18:55:51 10° NW 18:58:52 58° SW 19:01:53 10° SE visible
05 Mar 3.7 05:21:15 10° S 05:23:37 20° SE 05:25:59 10° E visible
07 Mar 2.1 04:51:57 33° S 04:52:50 43° SE 04:55:48 10° ENE visible
